[[{"header":{"parameterUnit":"m.s-1","parameterCategory":1,"la1":30.2991,"la2":30.254,"lo1":-89.0895,"lo2":-89.0444,"dy":0.0017,"dx":0.0017,"nx":28,"ny":28,"refTime":"2025-04-02T09:00:00:Z","depth":0,"parameterNumber":2,"parameterNumberName":"U-component_of_WINDS"},"data":[0,0,0,0,0,0,0,0,0,0,0,0,0,0,0,0,0,0,0,0,0,0,0,0,0,0,0,0,0,0,0,0,0,0,0,0,0,0,0,0,0,0,0,0,0,0,0,0,0,0,0,0,0,0,0,0,0,0,-5.9275,-5.9277,0,-5.9403,-5.9405,-5.9406,-5.9404,-5.9402,-5.94,-5.9399,-5.9527,-5.9532,-5.9536,0,0,0,0,0,0,0,0,0,0,0,0,0,-5.9027,-5.9032,-5.9275,-5.9277,-5.9279,-5.9403,-5.9405,-5.9407,-5.9404,-5.9402,-5.94,-5.9398,-5.9525,-5.9531,-5.9537,0,0,0,0,0,0,0,0,0,0,0,0,0,-5.9143,-5.9033,-5.9275,-5.9292,-5.9295,-5.9403,-5.9405,-5.9407,-5.9405,-5.9402,-5.9399,-5.9397,-5.9523,-5.953,-5.9538,-5.9635,0,0,-5.9561,-5.9564,0,0,0,0,0,0,0,0,-5.9136,-5.9152,-5.9288,-5.9291,-5.9295,-5.9385,-5.9364,-5.9484,-5.9405,-5.9363,-5.9399,-5.9396,-5.9481,-5.9492,-5.9522,-5.9641,-5.9647,-5.9561,-5.9566,-5.9569,-5.9571,0,0,0,0,0,0,0,-5.9128,-5.9146,-5.9326,-5.929,-5.9294,-5.9293,-5.9307,-5.9387,-5.9435,-5.9366,-5.9367,-5.9382,-5.9483,-5.9514,-5.9525,-5.9649,-5.9561,-5.9568,-5.9572,-5.9575,-5.9855,-5.9858,0,0,0,0,0,0,-5.9117,-5.914,-5.9322,-5.933,-5.9208,-5.93,-5.9315,-5.9359,-5.9434,-5.9443,-5.9384,-5.9381,-5.9503,-5.9516,-5.9529,-5.9647,-5.9569,-5.9576,-5.958,-5.9852,-5.9856,-5.9859,0,0,0,0,0,0,-5.9112,-5.9133,-5.9317,-5.9235,-5.9258,-5.9307,-5.9356,-5.9362,-5.9394,-5.9447,-5.9456,-5.9408,-5.9501,-5.9519,-5.9609,-5.9652,-5.9579,-5.9586,-5.9849,-5.9853,-5.9857,-5.9885,0,0,0,0,0,0,-5.9105,-5.9131,-5.9169,-5.9236,-5.9263,-5.9395,-5.9359,-5.9367,-5.9408,-5.9405,-5.9472,-5.948,-5.9501,-5.9598,-5.9617,-5.9661,-5.9592,-5.9845,-5.9851,-5.9856,-5.9881,-5.989,-5.9898,0,0,0,0,0,-5.9096,-5.9172,-5.9171,-5.9193,-5.9311,-5.9398,-5.9413,-5.9435,-5.9411,-5.9449,-5.9484,-5.9478,-5.9645,-5.9607,-5.9628,-5.9675,-5.9842,-5.9849,-5.9855,-5.9877,-5.9888,-5.9898,0,0,0,0,0,0,-5.9107,-5.918,-5.9181,-5.9281,-5.9333,-5.9397,-5.9445,-5.9447,-5.9506,-5.9502,-5.9527,-5.9542,-5.9632,-5.9663,-5.962,-5.9774,-5.974,-5.9752,-5.975,-5.9761,-5.977,-5.9759,-5.9598,0,0,0,0,0,-5.9122,-5.9187,-5.9247,-5.9329,-5.9356,-5.9396,-5.9435,-5.9448,-5.9503,-5.9525,-5.9565,-5.9618,-5.9682,-5.9724,-5.9786,-5.9887,-5.99,-5.993,-5.9938,-5.9945,-5.9953,-6.0008,-6.0021,-5.988,-5.988,-5.988,0,0,-5.9151,-5.92,-5.9239,-5.9333,-5.9375,-5.944,-5.9415,-5.9485,-5.9534,-5.9535,-5.9622,-5.9655,-5.9716,-5.9811,-5.9856,-5.984,-5.9996,-5.9954,-5.9959,-5.9963,-6.0016,-6.0029,-6.0041,-5.9885,-5.9884,-5.9883,0,0,-5.9239,-5.9283,-5.9355,-5.9399,-5.9463,-5.949,-5.9508,-5.9572,-5.9594,-5.9683,-5.9685,-5.9744,-5.9854,-5.9897,-5.9933,-6.0039,-6.0036,-6.0059,-6.0103,-6.0156,-6.0167,-6.0177,-6.0213,-6.0225,-6.0068,-6.0068,-6.0068,0,-5.9267,-5.9367,-5.9392,-5.9463,-5.9504,-5.9511,-5.9584,-5.9624,-5.9706,-5.9733,-5.9716,-5.9855,-5.9896,-6.0001,-6.0027,-6.0057,-6.0077,-6.0049,-6.0164,-6.0174,-6.0183,-6.0218,-6.0231,-6.007,-6.007,-6.0069,-6.0069,0,-5.9397,-5.9467,-5.9518,-5.9597,-5.9644,-5.9716,-5.9752,-5.9797,-5.9807,-5.9835,-5.9926,-5.9976,-6.0048,-6.0075,-6.0085,-6.0182,-6.017,-6.0158,-6.0124,-6.0198,-6.0231,-6.0245,-6.0073,-6.0072,-6.0072,-6.0071,0,0,-5.9492,-5.9586,-5.9604,-5.964,-5.9713,-5.9767,-5.984,-5.9911,-5.9948,-6.0005,-6.0065,-6.016,-6.0149,-6.019,-6.0206,-6.0253,-6.0331,-6.0235,-6.0236,-6.0249,-6.044,-6.0446,-6.0461,-6.0332,-6.0334,-6.0336,-6.0434,0,-5.9585,-5.9714,-5.974,-5.9851,-5.9915,-5.9923,-5.9986,-6.0037,-6.0067,-6.0125,-6.0157,-6.0223,-6.0205,-6.023,-6.0277,-6.0312,-6.037,-6.0306,-6.0386,-6.0388,-6.0367,-6.0479,-6.0486,-6.0575,-6.0447,-6.0449,-6.0451,0,-5.971,-5.977,-5.9888,-5.9953,-5.9981,-6.0037,-6.0105,-6.0161,-6.0219,-6.0237,-6.0285,-6.0295,-6.037,-6.0336,-6.0439,-6.0395,-6.043,-6.0452,-6.0456,-6.0462,-6.0421,-6.0484,-6.0604,-6.0616,-6.0471,-6.047,-6.0468,0,-5.9764,-5.9876,-5.996,-5.9991,-6.007,-6.0109,-6.0143,-6.0199,-6.0241,-6.03,-6.0327,-6.0395,-6.0431,-6.0483,-6.0512,-6.0485,-6.0612,-6.058,-6.0628,-6.0627,-6.0651,-6.0649,-6.0775,-6.0679,-6.0679,-6.0678,-6.0678,0,-5.9864,-5.9935,-5.9986,-6.0037,-6.0117,-6.0148,-6.0226,-6.026,-6.031,-6.0368,-6.038,-6.0434,-6.047,-6.0529,-6.0552,-6.0633,-6.065,-6.0666,-6.067,-6.0663,-6.066,-6.0683,-6.0677,-6.0682,-6.0681,-6.0681,-6.068,0,-5.9936,-5.9974,-6.0066,-6.0134,-6.0152,-6.0208,-6.0265,-6.0315,-6.0346,-6.0419,-6.0438,-6.0486,-6.0556,-6.0591,-6.0678,-6.0694,-6.0785,-6.0787,-6.0765,-6.0766,-6.081,-6.0805,-6.0953,-6.0974,-6.0867,-6.0868,-6.0868,0,-5.9996,-6.0051,-6.0124,-6.0164,-6.02,-6.0264,-6.0307,-6.034,-6.0384,-6.0455,-6.0497,-6.0568,-6.0626,-6.0738,-6.078,-6.0847,-6.0849,-6.0897,-6.0859,-6.085,-6.0847,-6.0842,-6.0847,-6.0902,-6.0903,-6.0904,-6.0905,0,-6.0097,-6.0113,-6.0174,-6.0243,-6.0294,-6.0349,-6.0404,-6.0436,-6.0477,-6.0526,-6.0598,-6.0644,-6.0734,-6.0803,-6.0874,-6.0908,-6.0913,-6.0917,-6.0931,-6.0922,-6.0906,-6.0913,-6.078,-6.0913,-6.0912,-6.0911,-6.0911,-6.091,-6.0163,-6.0212,-6.0271,-6.034,-6.0384,-6.0435,-6.0486,-6.0523,-6.0585,-6.066,-6.0676,-6.0753,-6.081,-6.0905,-6.0943,-6.1002,-6.0992,-6.1013,-6.1017,-6.1021,-6.1022,-6.09,-6.1016,-6.1016,-6.1015,-6.1015,-6.1015,0,-6.0262,-6.0301,-6.0364,-6.044,-6.0494,-6.0496,-6.0557,-6.0601,-6.0668,-6.0723,-6.078,-6.0863,-6.0932,-6.098,-6.105,-6.1088,-6.1092,-6.1105,-6.1101,-6.1109,-6.1029,-6.1009,-6.1101,-6.1101,-6.1101,-6.1101,-6.1101,-6.1101,-6.032,-6.0403,-6.0426,-6.0531,-6.057,-6.0645,-6.0679,-6.0726,-6.0769,-6.0862,-6.0919,-6.0951,-6.1002,-6.1076,-6.1138,-6.1151,-6.1175,-6.1188,-6.1199,-6.1123,-6.1114,-6.1105,-6.1086,-6.1193,-6.1193,-6.1274,-6.1274,-6.1275]},{"header":{"parameterUnit":"m.s-1","parameterCategory":1,"la1":30.2991,"la2":30.254,"lo1":-89.0895,"lo2":-89.0444,"dy":0.0017,"dx":0.0017,"nx":28,"ny":28,"refTime":"2025-04-02T09:00:00:Z","depth":0,"parameterNumber":3,"parameterNumberName":"V-component_of_WINDS"},"data":[0,0,0,0,0,0,0,0,0,0,0,0,0,0,0,0,0,0,0,0,0,0,0,0,0,0,0,0,0,0,0,0,0,0,0,0,0,0,0,0,0,0,0,0,0,0,0,0,0,0,0,0,0,0,0,0,0,0,5.1041,5.1042,0,5.1182,5.1183,5.1185,5.1189,5.1187,5.1185,5.1184,5.1324,5.133,5.1335,0,0,0,0,0,0,0,0,0,0,0,0,0,5.0773,5.0778,5.104,5.1042,5.1044,5.1181,5.1183,5.1185,5.1189,5.1187,5.1185,5.1183,5.1323,5.1329,5.1335,0,0,0,0,0,0,0,0,0,0,0,0,0,5.0899,5.0779,5.104,5.1062,5.1066,5.1181,5.1183,5.1186,5.1189,5.1187,5.1184,5.1182,5.1321,5.1328,5.1336,5.1438,0,0,5.1361,5.1364,0,0,0,0,0,0,0,0,5.0892,5.0909,5.1057,5.1061,5.1065,5.1165,5.1141,5.127,5.119,5.1142,5.1183,5.118,5.1273,5.1285,5.1317,5.1444,5.145,5.1362,5.1366,5.137,5.1372,0,0,0,0,0,0,0,5.0883,5.0903,5.1096,5.106,5.1064,5.1065,5.108,5.1165,5.122,5.1146,5.1147,5.1164,5.1275,5.1309,5.132,5.1452,5.1361,5.1368,5.1373,5.1377,5.1673,5.1676,0,0,0,0,0,0,5.087,5.0895,5.1092,5.11,5.097,5.1072,5.1089,5.1135,5.122,5.123,5.1166,5.1163,5.1297,5.1311,5.1325,5.1452,5.137,5.1377,5.1382,5.167,5.1674,5.1677,0,0,0,0,0,0,5.0864,5.0888,5.1086,5.0998,5.1024,5.1079,5.1132,5.114,5.1174,5.1234,5.1244,5.1191,5.1295,5.1314,5.1411,5.1457,5.1381,5.1388,5.1666,5.1671,5.1675,5.1704,0,0,0,0,0,0,5.0857,5.0885,5.0925,5.0999,5.1028,5.117,5.1135,5.1144,5.1188,5.1187,5.1261,5.127,5.1295,5.1399,5.1419,5.1466,5.1395,5.1662,5.1668,5.1674,5.1699,5.1709,5.1717,0,0,0,0,0,5.0847,5.0926,5.0927,5.095,5.1079,5.1172,5.1189,5.1216,5.1192,5.1232,5.1271,5.1268,5.1448,5.1409,5.1431,5.1482,5.166,5.1667,5.1673,5.1695,5.1707,5.1717,0,0,0,0,0,0,5.0853,5.0936,5.0938,5.1043,5.1101,5.1173,5.1224,5.1228,5.1292,5.1288,5.1318,5.1335,5.1432,5.1466,5.142,5.1586,5.1551,5.1563,5.156,5.1572,5.1581,5.157,5.1401,0,0,0,0,0,5.0867,5.0937,5.1005,5.1091,5.112,5.1167,5.1209,5.1226,5.1286,5.131,5.1356,5.1414,5.1485,5.153,5.1597,5.1704,5.1721,5.175,5.1759,5.1766,5.1776,5.1838,5.1852,5.1699,5.1699,5.1699,0,0,5.0896,5.095,5.0991,5.1094,5.1141,5.1213,5.1188,5.1264,5.1317,5.1321,5.1416,5.1452,5.1519,5.1622,5.167,5.1654,5.1823,5.1775,5.178,5.1787,5.1846,5.1861,5.1874,5.1704,5.1703,5.1702,0,0,5.0986,5.1033,5.1111,5.1159,5.1231,5.1263,5.1281,5.1354,5.1378,5.1475,5.148,5.1544,5.1663,5.1712,5.1752,5.1863,5.1863,5.1884,5.1932,5.1991,5.2003,5.2014,5.2056,5.207,5.1894,5.1894,5.1894,0,5.1012,5.1121,5.1151,5.1228,5.1274,5.1283,5.1363,5.1408,5.1497,5.1529,5.151,5.1662,5.1708,5.1823,5.1851,5.1883,5.1906,5.1876,5.1999,5.2011,5.2021,5.2061,5.2076,5.1896,5.1896,5.1895,5.1895,0,5.1151,5.1227,5.1282,5.1371,5.1422,5.15,5.1542,5.159,5.1603,5.1636,5.1735,5.1791,5.1871,5.1899,5.1911,5.2018,5.2006,5.1993,5.1959,5.2038,5.2076,5.2091,5.1899,5.1898,5.1898,5.1897,0,0,5.1248,5.1354,5.1374,5.1416,5.1497,5.1556,5.1635,5.1716,5.1758,5.1819,5.1887,5.199,5.1979,5.2025,5.2043,5.2095,5.2182,5.2076,5.2078,5.2095,5.2305,5.2316,5.2333,5.2183,5.2186,5.2188,5.23,0,5.1348,5.149,5.152,5.1643,5.1715,5.1725,5.1795,5.1852,5.1886,5.1951,5.1987,5.206,5.204,5.2068,5.212,5.2161,5.2225,5.2153,5.2247,5.225,5.2231,5.2352,5.2363,5.2466,5.2315,5.2318,5.232,0,5.1483,5.1551,5.1682,5.1757,5.1788,5.185,5.1927,5.1989,5.2055,5.2076,5.2128,5.2141,5.2224,5.2186,5.2302,5.2252,5.2293,5.2318,5.2323,5.2334,5.229,5.2368,5.2499,5.2516,5.2343,5.2341,5.2339,0,5.1543,5.1667,5.1762,5.1797,5.1886,5.193,5.1968,5.2032,5.2079,5.2146,5.2178,5.2253,5.2294,5.2353,5.2386,5.2354,5.25,5.2464,5.252,5.252,5.2551,5.2548,5.2692,5.2574,5.2574,5.2574,5.2573,0,5.1652,5.1732,5.1791,5.1849,5.194,5.1974,5.2062,5.21,5.2157,5.2224,5.2236,5.2298,5.2338,5.2406,5.2432,5.2525,5.2543,5.2563,5.2569,5.2562,5.256,5.259,5.2584,5.2578,5.2577,5.2576,5.2575,0,5.1735,5.1777,5.1882,5.1958,5.1979,5.2043,5.2108,5.2166,5.22,5.2284,5.2306,5.2359,5.244,5.2479,5.2578,5.2596,5.2702,5.2703,5.268,5.2683,5.2738,5.2733,5.2907,5.2933,5.2796,5.2797,5.2798,0,5.1802,5.1865,5.1949,5.1995,5.2036,5.2109,5.2159,5.2194,5.2245,5.2326,5.2374,5.2456,5.2523,5.2652,5.2699,5.2776,5.2779,5.2835,5.2791,5.2783,5.2783,5.2779,5.2786,5.2843,5.2844,5.2846,5.2846,0,5.1919,5.1937,5.2008,5.2088,5.2146,5.221,5.2272,5.2309,5.2355,5.2411,5.2495,5.2548,5.2651,5.2732,5.2812,5.2852,5.2858,5.286,5.2878,5.2872,5.2858,5.2869,5.2704,5.2856,5.2855,5.2854,5.2854,5.2853,5.1998,5.2055,5.2124,5.2203,5.2254,5.2313,5.2372,5.2414,5.2485,5.2573,5.2589,5.2679,5.2745,5.2854,5.2896,5.2967,5.2954,5.2979,5.2985,5.2991,5.2996,5.2846,5.2981,5.2981,5.2981,5.2981,5.298,0,5.2117,5.2162,5.2235,5.2323,5.2386,5.2387,5.2457,5.2509,5.2588,5.265,5.2717,5.2814,5.2893,5.2948,5.3029,5.3075,5.308,5.3095,5.3093,5.3102,5.3001,5.2979,5.309,5.309,5.309,5.309,5.309,5.309,5.2186,5.2283,5.231,5.2434,5.2478,5.2567,5.2607,5.2662,5.2712,5.2821,5.2887,5.2923,5.2983,5.3068,5.3142,5.3156,5.3186,5.3202,5.3216,5.312,5.3109,5.3098,5.3077,5.3208,5.3208,5.3311,5.3312,5.3313]}]]